Torna al catalogo

QIANFAN-122

AttivoComunicazioniPO
NORAD 68649·PAYLOAD·🇨🇳 China

Lanciato Apr 7, 2026 da Wenchang Space Launch Site

Loading…

Prossimi Passaggi (prossime 24 ore)

TLE

AggiornatoSource: Space-Track

Epoca: Sep 14, 2026, 14:09 UTC

1 68649U 26075P   26257.58975685  .00000076  00000-0  99214-4 0  9990
2 68649  88.9873 311.8689 0002251  89.1232 271.0177 13.51026974 21870

Traccia QIANFAN-122 in tempo reale con AllMySat

Download on the App Store